Year,Month,Day,Hour,Minute,Value (Times are PST for windgust in km/hr)
2021,09,17,00,14,1.60
2021,09,17,00,16,3.20
2021,09,17,00,17,3.20
2021,09,17,00,33,1.60
2021,09,17,00,34,1.60
2021,09,17,00,35,1.60
2021,09,17,00,37,1.60
2021,09,17,00,39,1.60
2021,09,17,00,40,1.60
2021,09,17,00,42,1.60
2021,09,17,00,43,1.60
2021,09,17,00,44,3.20
2021,09,17,00,45,1.60
2021,09,17,07,22,3.20
2021,09,17,07,23,1.60
2021,09,17,07,24,3.20
2021,09,17,07,30,1.60
2021,09,17,07,41,3.20
2021,09,17,07,42,3.20
2021,09,17,07,43,1.60
2021,09,17,07,44,3.20
2021,09,17,07,45,3.20
2021,09,17,07,48,4.80
2021,09,17,07,49,3.20
2021,09,17,07,51,3.20
2021,09,17,07,54,1.60
2021,09,17,07,55,3.20
2021,09,17,07,56,4.80
2021,09,17,07,57,1.60
2021,09,17,07,58,4.80
2021,09,17,07,59,8.10
2021,09,17,08,00,6.40
2021,09,17,08,01,4.80
2021,09,17,08,03,1.60
2021,09,17,08,04,1.60
2021,09,17,08,05,3.20
2021,09,17,08,06,4.80
2021,09,17,08,07,1.60
2021,09,17,08,08,4.80
2021,09,17,08,09,9.60
2021,09,17,08,10,3.20
2021,09,17,08,12,3.20
2021,09,17,08,17,1.60
2021,09,17,08,18,4.80
2021,09,17,08,19,6.40
2021,09,17,08,20,4.80
2021,09,17,08,21,4.80
2021,09,17,08,22,1.60
2021,09,17,08,23,3.20
2021,09,17,08,24,3.20
2021,09,17,08,28,3.20
2021,09,17,08,29,3.20
2021,09,17,08,30,3.20
2021,09,17,08,31,1.60
2021,09,17,08,32,1.60
2021,09,17,08,34,4.80
2021,09,17,08,35,4.80
2021,09,17,08,38,3.20
2021,09,17,08,39,1.60
2021,09,17,08,41,3.20
2021,09,17,08,42,4.80
2021,09,17,08,43,6.40
2021,09,17,08,44,4.80
2021,09,17,08,45,4.80
2021,09,17,08,46,4.80
2021,09,17,08,47,3.20
2021,09,17,08,48,4.80
2021,09,17,08,49,3.20
2021,09,17,08,50,6.40
2021,09,17,08,51,3.20
2021,09,17,08,53,3.20
2021,09,17,08,54,1.60
2021,09,17,08,55,3.20
2021,09,17,08,56,3.20
2021,09,17,08,57,3.20
2021,09,17,08,58,3.20
2021,09,17,08,59,3.20
2021,09,17,09,00,4.80
2021,09,17,09,01,6.40
2021,09,17,09,02,3.20
2021,09,17,09,03,3.20
2021,09,17,09,04,9.60
2021,09,17,09,05,6.40
2021,09,17,09,06,6.40
2021,09,17,09,07,9.60
2021,09,17,09,08,8.10
2021,09,17,09,09,8.10
2021,09,17,09,10,8.10
2021,09,17,09,11,8.10
2021,09,17,09,12,8.10
2021,09,17,09,13,4.80
2021,09,17,09,14,6.40
2021,09,17,09,15,9.60
2021,09,17,09,16,9.60
2021,09,17,09,17,14.50
2021,09,17,09,18,8.10
2021,09,17,09,19,8.10
2021,09,17,09,20,9.60
2021,09,17,09,21,6.40
2021,09,17,09,22,3.20
2021,09,17,09,23,6.40
2021,09,17,09,24,8.10
2021,09,17,09,25,6.40
2021,09,17,09,26,9.60
2021,09,17,09,27,4.80
2021,09,17,09,28,8.10
2021,09,17,09,29,8.10
2021,09,17,09,30,14.50
2021,09,17,09,31,6.40
2021,09,17,09,32,4.80
2021,09,17,09,33,9.60
2021,09,17,09,34,12.90
2021,09,17,09,35,8.10
2021,09,17,09,36,8.10
2021,09,17,09,37,4.80
2021,09,17,09,38,8.10
2021,09,17,09,39,9.60
2021,09,17,09,40,8.10
2021,09,17,09,41,9.60
2021,09,17,09,42,3.20
2021,09,17,09,43,8.10
2021,09,17,09,44,3.20
2021,09,17,09,45,9.60
2021,09,17,09,46,6.40
2021,09,17,09,47,9.60
2021,09,17,09,48,6.40
2021,09,17,09,49,3.20
2021,09,17,09,50,6.40
2021,09,17,09,51,6.40
2021,09,17,09,52,6.40
2021,09,17,09,53,8.10
2021,09,17,09,54,8.10
2021,09,17,09,55,8.10
2021,09,17,09,56,9.60
2021,09,17,09,57,8.10
2021,09,17,09,58,9.60
2021,09,17,09,59,6.40
2021,09,17,10,00,6.40
2021,09,17,10,01,6.40
2021,09,17,10,02,8.10
2021,09,17,10,03,6.40
2021,09,17,10,04,6.40
2021,09,17,10,05,4.80
2021,09,17,10,06,6.40
2021,09,17,10,07,6.40
2021,09,17,10,08,8.10
2021,09,17,10,09,9.60
2021,09,17,10,10,6.40
2021,09,17,10,11,6.40
2021,09,17,10,12,12.90
2021,09,17,10,13,16.10
2021,09,17,10,14,8.10
2021,09,17,10,15,6.40
2021,09,17,10,16,6.40
2021,09,17,10,17,8.10
2021,09,17,10,18,9.60
2021,09,17,10,19,9.60
2021,09,17,10,20,9.60
2021,09,17,10,21,6.40
2021,09,17,10,22,6.40
2021,09,17,10,23,14.50
2021,09,17,10,24,8.10
2021,09,17,10,25,9.60
2021,09,17,10,26,6.40
2021,09,17,10,27,8.10
2021,09,17,10,28,9.60
2021,09,17,10,29,9.60
2021,09,17,10,30,8.10
2021,09,17,10,31,6.40
2021,09,17,10,32,8.10
2021,09,17,10,33,8.10
2021,09,17,10,34,6.40
2021,09,17,10,35,9.60
2021,09,17,10,36,8.10
2021,09,17,10,37,9.60
2021,09,17,10,38,12.90
2021,09,17,10,39,9.60
2021,09,17,10,40,9.60
2021,09,17,10,41,9.60
2021,09,17,10,42,9.60
2021,09,17,10,43,12.90
2021,09,17,10,44,8.10
2021,09,17,10,45,12.90
2021,09,17,10,46,12.90
2021,09,17,10,47,12.90
2021,09,17,10,48,9.60
2021,09,17,10,49,8.10
2021,09,17,10,50,9.60
2021,09,17,10,51,9.60
2021,09,17,10,52,14.50
2021,09,17,10,53,6.40
2021,09,17,10,54,4.80
2021,09,17,10,55,8.10
2021,09,17,10,56,6.40
2021,09,17,10,57,6.40
2021,09,17,10,58,6.40
2021,09,17,10,59,9.60
2021,09,17,11,00,6.40
2021,09,17,11,01,6.40
2021,09,17,11,02,8.10
2021,09,17,11,03,8.10
2021,09,17,11,04,6.40
2021,09,17,11,05,12.90
2021,09,17,11,06,6.40
2021,09,17,11,07,9.60
2021,09,17,11,08,12.90
2021,09,17,11,09,8.10
2021,09,17,11,10,12.90
2021,09,17,11,11,8.10
2021,09,17,11,12,8.10
2021,09,17,11,13,4.80
2021,09,17,11,14,12.90
2021,09,17,11,15,6.40
2021,09,17,11,16,8.10
2021,09,17,11,17,8.10
2021,09,17,11,18,12.90
2021,09,17,11,19,8.10
2021,09,17,11,20,9.60
2021,09,17,11,21,8.10
2021,09,17,11,22,6.40
2021,09,17,11,23,6.40
2021,09,17,11,24,6.40
2021,09,17,11,25,8.10
2021,09,17,11,26,8.10
2021,09,17,11,27,8.10
2021,09,17,11,28,4.80
2021,09,17,11,29,9.60
2021,09,17,11,30,9.60
2021,09,17,11,31,8.10
2021,09,17,11,32,6.40
2021,09,17,11,33,8.10
2021,09,17,11,34,4.80
2021,09,17,11,35,6.40
2021,09,17,11,36,4.80
2021,09,17,11,37,8.10
2021,09,17,11,38,6.40
2021,09,17,11,39,12.90
2021,09,17,11,40,9.60
2021,09,17,11,41,6.40
2021,09,17,11,42,6.40
2021,09,17,11,43,9.60
2021,09,17,11,44,19.30
2021,09,17,11,45,9.60
2021,09,17,11,46,4.80
2021,09,17,11,47,4.80
2021,09,17,11,48,8.10
2021,09,17,11,49,6.40
2021,09,17,11,50,6.40
2021,09,17,11,51,8.10
2021,09,17,11,52,12.90
2021,09,17,11,53,6.40
2021,09,17,11,54,9.60
2021,09,17,11,55,9.60
2021,09,17,11,56,12.90
2021,09,17,11,57,9.60
2021,09,17,11,58,6.40
2021,09,17,11,59,4.80
2021,09,17,12,00,8.10
2021,09,17,12,01,8.10
2021,09,17,12,02,4.80
2021,09,17,12,03,6.40
2021,09,17,12,04,9.60
2021,09,17,12,05,6.40
2021,09,17,12,06,8.10
2021,09,17,12,07,1.60
2021,09,17,12,08,4.80
2021,09,17,12,09,14.50
2021,09,17,12,10,6.40
2021,09,17,12,11,6.40
2021,09,17,12,12,9.60
2021,09,17,12,13,8.10
2021,09,17,12,14,6.40
2021,09,17,12,15,1.60
2021,09,17,12,16,9.60
2021,09,17,12,17,9.60
2021,09,17,12,18,9.60
2021,09,17,12,19,8.10
2021,09,17,12,20,6.40
2021,09,17,12,21,8.10
2021,09,17,12,22,9.60
2021,09,17,12,23,8.10
2021,09,17,12,24,4.80
2021,09,17,12,25,9.60
2021,09,17,12,26,4.80
2021,09,17,12,27,9.60
2021,09,17,12,28,8.10
2021,09,17,12,29,12.90
2021,09,17,12,30,9.60
2021,09,17,12,31,9.60
2021,09,17,12,32,8.10
2021,09,17,12,33,4.80
2021,09,17,12,34,12.90
2021,09,17,12,35,12.90
2021,09,17,12,36,17.70
2021,09,17,12,37,17.70
2021,09,17,12,38,4.80
2021,09,17,12,39,8.10
2021,09,17,12,40,8.10
2021,09,17,12,41,8.10
2021,09,17,12,42,8.10
2021,09,17,12,43,6.40
2021,09,17,12,44,3.20
2021,09,17,12,45,6.40
2021,09,17,12,46,12.90
2021,09,17,12,47,12.90
2021,09,17,12,48,9.60
2021,09,17,12,49,12.90
2021,09,17,12,50,12.90
2021,09,17,12,51,9.60
2021,09,17,12,52,9.60
2021,09,17,12,53,14.50
2021,09,17,12,54,19.30
2021,09,17,12,55,17.70
2021,09,17,12,56,14.50
2021,09,17,12,57,6.40
2021,09,17,12,58,9.60
2021,09,17,12,59,12.90
2021,09,17,13,00,6.40
2021,09,17,13,01,8.10
2021,09,17,13,02,17.70
2021,09,17,13,03,14.50
2021,09,17,13,04,9.60
2021,09,17,13,05,8.10
2021,09,17,13,06,6.40
2021,09,17,13,07,9.60
2021,09,17,13,08,6.40
2021,09,17,13,09,6.40
2021,09,17,13,10,6.40
2021,09,17,13,11,3.20
2021,09,17,13,12,8.10
2021,09,17,13,13,8.10
2021,09,17,13,14,9.60
2021,09,17,13,15,12.90
2021,09,17,13,16,9.60
2021,09,17,13,17,14.50
2021,09,17,13,18,8.10
2021,09,17,13,19,6.40
2021,09,17,13,20,4.80
2021,09,17,13,21,8.10
2021,09,17,13,22,8.10
2021,09,17,13,23,12.90
2021,09,17,13,24,9.60
2021,09,17,13,25,4.80
2021,09,17,13,26,6.40
2021,09,17,13,27,6.40
2021,09,17,13,28,12.90
2021,09,17,13,29,6.40
2021,09,17,13,30,6.40
2021,09,17,13,31,4.80
2021,09,17,13,32,4.80
2021,09,17,13,33,9.60
2021,09,17,13,34,9.60
2021,09,17,13,35,8.10
2021,09,17,13,36,8.10
2021,09,17,13,37,6.40
2021,09,17,13,38,8.10
2021,09,17,13,39,6.40
2021,09,17,13,40,8.10
2021,09,17,13,41,4.80
2021,09,17,13,42,4.80
2021,09,17,13,43,8.10
2021,09,17,13,44,14.50
2021,09,17,13,45,6.40
2021,09,17,13,46,1.60
2021,09,17,13,47,12.90
2021,09,17,13,48,9.60
2021,09,17,13,49,4.80
2021,09,17,13,50,4.80
2021,09,17,13,51,8.10
2021,09,17,13,52,6.40
2021,09,17,13,53,4.80
2021,09,17,13,54,4.80
2021,09,17,13,55,12.90
2021,09,17,13,56,6.40
2021,09,17,13,57,9.60
2021,09,17,13,58,9.60
2021,09,17,13,59,8.10
2021,09,17,14,00,6.40
2021,09,17,14,01,6.40
2021,09,17,14,02,4.80
2021,09,17,14,03,8.10
2021,09,17,14,04,3.20
2021,09,17,14,05,6.40
2021,09,17,14,06,6.40
2021,09,17,14,07,12.90
2021,09,17,14,08,4.80
2021,09,17,14,09,3.20
2021,09,17,14,10,3.20
2021,09,17,14,11,6.40
2021,09,17,14,12,8.10
2021,09,17,14,13,8.10
2021,09,17,14,14,1.60
2021,09,17,14,15,6.40
2021,09,17,14,16,12.90
2021,09,17,14,17,8.10
2021,09,17,14,18,6.40
2021,09,17,14,19,4.80
2021,09,17,14,20,8.10
2021,09,17,14,21,4.80
2021,09,17,14,22,6.40
2021,09,17,14,23,3.20
2021,09,17,14,24,1.60
2021,09,17,14,25,8.10
2021,09,17,14,26,6.40
2021,09,17,14,27,8.10
2021,09,17,14,28,6.40
2021,09,17,14,29,6.40
2021,09,17,14,30,8.10
2021,09,17,14,31,9.60
2021,09,17,14,32,6.40
2021,09,17,14,33,8.10
2021,09,17,14,34,8.10
2021,09,17,14,35,4.80
2021,09,17,14,36,6.40
2021,09,17,14,37,9.60
2021,09,17,14,38,4.80
2021,09,17,14,39,8.10
2021,09,17,14,40,8.10
2021,09,17,14,41,9.60
2021,09,17,14,42,9.60
2021,09,17,14,43,8.10
2021,09,17,14,44,12.90
2021,09,17,14,45,14.50
2021,09,17,14,46,9.60
2021,09,17,14,47,6.40
2021,09,17,14,48,17.70
2021,09,17,14,49,14.50
2021,09,17,14,50,8.10
2021,09,17,14,51,8.10
2021,09,17,14,52,6.40
2021,09,17,14,53,9.60
2021,09,17,14,54,8.10
2021,09,17,14,55,8.10
2021,09,17,14,56,16.10
2021,09,17,14,57,14.50
2021,09,17,14,58,9.60
2021,09,17,14,59,6.40
2021,09,17,15,00,8.10
2021,09,17,15,01,14.50
2021,09,17,15,02,8.10
2021,09,17,15,03,12.90
2021,09,17,15,04,9.60
2021,09,17,15,05,9.60
2021,09,17,15,06,9.60
2021,09,17,15,07,8.10
2021,09,17,15,08,9.60
2021,09,17,15,09,6.40
2021,09,17,15,10,8.10
2021,09,17,15,11,16.10
2021,09,17,15,12,14.50
2021,09,17,15,13,8.10
2021,09,17,15,14,4.80
2021,09,17,15,15,9.60
2021,09,17,15,16,14.50
2021,09,17,15,17,8.10
2021,09,17,15,18,6.40
2021,09,17,15,19,4.80
2021,09,17,15,20,4.80
2021,09,17,15,21,8.10
2021,09,17,15,22,16.10
2021,09,17,15,23,8.10
2021,09,17,15,24,4.80
2021,09,17,15,25,6.40
2021,09,17,15,26,12.90
2021,09,17,15,27,12.90
2021,09,17,15,28,12.90
2021,09,17,15,29,8.10
2021,09,17,15,30,8.10
2021,09,17,15,31,19.30
2021,09,17,15,32,19.30
2021,09,17,15,33,17.70
2021,09,17,15,34,12.90
2021,09,17,15,35,12.90
2021,09,17,15,36,12.90
2021,09,17,15,37,12.90
2021,09,17,15,38,9.60
2021,09,17,15,39,8.10
2021,09,17,15,40,14.50
2021,09,17,15,41,14.50
2021,09,17,15,42,14.50
2021,09,17,15,43,19.30
2021,09,17,15,44,16.10
2021,09,17,15,45,22.50
2021,09,17,15,46,9.60
2021,09,17,15,47,17.70
2021,09,17,15,48,12.90
2021,09,17,15,49,9.60
2021,09,17,15,50,14.50
2021,09,17,15,51,6.40
2021,09,17,15,52,16.10
2021,09,17,15,53,8.10
2021,09,17,15,54,9.60
2021,09,17,15,55,12.90
2021,09,17,15,56,19.30
2021,09,17,15,57,12.90
2021,09,17,15,58,14.50
2021,09,17,15,59,16.10
2021,09,17,16,00,16.10
2021,09,17,16,01,20.90
2021,09,17,16,02,8.10
2021,09,17,16,03,8.10
2021,09,17,16,04,17.70
2021,09,17,16,05,8.10
2021,09,17,16,06,6.40
2021,09,17,16,07,6.40
2021,09,17,16,08,8.10
2021,09,17,16,09,9.60
2021,09,17,16,10,9.60
2021,09,17,16,11,14.50
2021,09,17,16,12,12.90
2021,09,17,16,13,9.60
2021,09,17,16,14,12.90
2021,09,17,16,15,8.10
2021,09,17,16,16,8.10
2021,09,17,16,17,14.50
2021,09,17,16,18,14.50
2021,09,17,16,19,6.40
2021,09,17,16,20,8.10
2021,09,17,16,21,9.60
2021,09,17,16,22,9.60
2021,09,17,16,23,17.70
2021,09,17,16,24,9.60
2021,09,17,16,25,9.60
2021,09,17,16,26,8.10
2021,09,17,16,27,9.60
2021,09,17,16,28,16.10
2021,09,17,16,29,14.50
2021,09,17,16,30,12.90
2021,09,17,16,31,16.10
2021,09,17,16,32,16.10
2021,09,17,16,33,9.60
2021,09,17,16,34,9.60
2021,09,17,16,35,16.10
2021,09,17,16,36,6.40
2021,09,17,16,37,14.50
2021,09,17,16,38,14.50
2021,09,17,16,39,16.10
2021,09,17,16,40,16.10
2021,09,17,16,41,16.10
2021,09,17,16,42,9.60
2021,09,17,16,43,14.50
2021,09,17,16,44,14.50
2021,09,17,16,45,12.90
2021,09,17,16,46,8.10
2021,09,17,16,47,4.80
2021,09,17,16,48,16.10
2021,09,17,16,49,19.30
2021,09,17,16,50,12.90
2021,09,17,16,51,16.10
2021,09,17,16,52,6.40
2021,09,17,16,53,14.50
2021,09,17,16,54,14.50
2021,09,17,16,55,16.10
2021,09,17,16,56,14.50
2021,09,17,16,57,12.90
2021,09,17,16,58,9.60
2021,09,17,16,59,16.10
2021,09,17,17,00,9.60
2021,09,17,17,01,6.40
2021,09,17,17,02,12.90
2021,09,17,17,03,9.60
2021,09,17,17,04,8.10
2021,09,17,17,05,19.30
2021,09,17,17,06,12.90
2021,09,17,17,07,17.70
2021,09,17,17,08,6.40
2021,09,17,17,09,9.60
2021,09,17,17,10,8.10
2021,09,17,17,11,12.90
2021,09,17,17,12,9.60
2021,09,17,17,13,16.10
2021,09,17,17,14,14.50
2021,09,17,17,15,9.60
2021,09,17,17,16,19.30
2021,09,17,17,17,16.10
2021,09,17,17,18,19.30
2021,09,17,17,19,12.90
2021,09,17,17,20,14.50
2021,09,17,17,21,12.90
2021,09,17,17,22,14.50
2021,09,17,17,23,9.60
2021,09,17,17,24,6.40
2021,09,17,17,25,8.10
2021,09,17,17,26,9.60
2021,09,17,17,27,8.10
2021,09,17,17,28,14.50
2021,09,17,17,29,8.10
2021,09,17,17,30,12.90
2021,09,17,17,31,16.10
2021,09,17,17,32,12.90
2021,09,17,17,33,12.90
2021,09,17,17,34,14.50
2021,09,17,17,35,14.50
2021,09,17,17,36,14.50
2021,09,17,17,37,17.70
2021,09,17,17,38,12.90
2021,09,17,17,39,12.90
2021,09,17,17,40,8.10
2021,09,17,17,41,19.30
2021,09,17,17,42,12.90
2021,09,17,17,43,16.10
2021,09,17,17,44,17.70
2021,09,17,17,45,8.10
2021,09,17,17,46,12.90
2021,09,17,17,47,8.10
2021,09,17,17,48,16.10
2021,09,17,17,49,16.10
2021,09,17,17,50,8.10
2021,09,17,17,51,9.60
2021,09,17,17,52,14.50
2021,09,17,17,53,16.10
2021,09,17,17,54,19.30
2021,09,17,17,55,14.50
2021,09,17,17,56,8.10
2021,09,17,17,57,8.10
2021,09,17,17,58,8.10
2021,09,17,17,59,16.10
2021,09,17,18,00,14.50
2021,09,17,18,01,17.70
2021,09,17,18,02,9.60
2021,09,17,18,03,9.60
2021,09,17,18,04,9.60
2021,09,17,18,05,32.20
2021,09,17,18,06,20.90
2021,09,17,18,07,17.70
2021,09,17,18,08,9.60
2021,09,17,18,09,14.50
2021,09,17,18,10,14.50
2021,09,17,18,11,17.70
2021,09,17,18,12,14.50
2021,09,17,18,13,16.10
2021,09,17,18,14,16.10
2021,09,17,18,15,17.70
2021,09,17,18,16,14.50
2021,09,17,18,17,9.60
2021,09,17,18,18,14.50
2021,09,17,18,19,9.60
2021,09,17,18,20,14.50
2021,09,17,18,21,12.90
2021,09,17,18,22,9.60
2021,09,17,18,23,8.10
2021,09,17,18,24,12.90
2021,09,17,18,25,6.40
2021,09,17,18,26,9.60
2021,09,17,18,27,9.60
2021,09,17,18,28,4.80
2021,09,17,18,29,9.60
2021,09,17,18,30,9.60
2021,09,17,18,31,9.60
2021,09,17,18,32,6.40
2021,09,17,18,33,4.80
2021,09,17,18,34,3.20
2021,09,17,18,35,4.80
2021,09,17,18,36,9.60
2021,09,17,18,37,9.60
2021,09,17,18,38,6.40
2021,09,17,18,39,6.40
2021,09,17,18,40,6.40
2021,09,17,18,41,9.60
2021,09,17,18,42,6.40
2021,09,17,18,43,9.60
2021,09,17,18,44,8.10
2021,09,17,18,45,4.80
2021,09,17,18,46,8.10
2021,09,17,18,47,4.80
2021,09,17,18,48,6.40
2021,09,17,18,49,9.60
2021,09,17,18,50,6.40
2021,09,17,18,51,4.80
2021,09,17,18,52,8.10
2021,09,17,18,53,12.90
2021,09,17,18,54,19.30
2021,09,17,18,55,8.10
2021,09,17,18,56,16.10
2021,09,17,18,57,9.60
2021,09,17,18,58,9.60
2021,09,17,18,59,9.60
2021,09,17,19,00,9.60
2021,09,17,19,01,8.10
2021,09,17,19,02,9.60
2021,09,17,19,03,16.10
2021,09,17,19,04,16.10
2021,09,17,19,05,16.10
2021,09,17,19,06,9.60
2021,09,17,19,07,17.70
2021,09,17,19,08,16.10
2021,09,17,19,09,16.10
2021,09,17,19,10,12.90
2021,09,17,19,11,9.60
2021,09,17,19,12,14.50
2021,09,17,19,13,9.60
2021,09,17,19,14,6.40
2021,09,17,19,15,4.80
2021,09,17,19,16,6.40
2021,09,17,19,17,6.40
2021,09,17,19,18,8.10
2021,09,17,19,19,8.10
2021,09,17,19,20,8.10
2021,09,17,19,21,14.50
2021,09,17,19,22,9.60
2021,09,17,19,23,12.90
2021,09,17,19,24,9.60
2021,09,17,19,25,9.60
2021,09,17,19,26,8.10
2021,09,17,19,27,8.10
2021,09,17,19,28,6.40
2021,09,17,19,29,6.40
2021,09,17,19,30,6.40
2021,09,17,19,31,4.80
2021,09,17,19,32,3.20
2021,09,17,19,33,6.40
2021,09,17,19,34,6.40
2021,09,17,19,35,4.80
2021,09,17,19,36,3.20
2021,09,17,19,37,1.60
2021,09,17,19,38,1.60
2021,09,17,19,39,3.20
2021,09,17,19,41,3.20
2021,09,17,19,42,6.40
2021,09,17,19,43,3.20
2021,09,17,19,44,3.20
2021,09,17,19,45,1.60
2021,09,17,19,46,3.20
2021,09,17,19,47,3.20
2021,09,17,19,48,6.40
2021,09,17,19,51,6.40
2021,09,17,19,52,4.80
2021,09,17,19,53,1.60
2021,09,17,19,54,3.20
2021,09,17,19,55,3.20
2021,09,17,19,56,3.20
2021,09,17,19,57,1.60
2021,09,17,19,58,3.20
2021,09,17,19,59,1.60
2021,09,17,20,00,3.20
2021,09,17,20,01,3.20
2021,09,17,20,02,3.20
2021,09,17,20,03,1.60
2021,09,17,20,04,1.60
2021,09,17,20,05,4.80
2021,09,17,20,06,4.80
2021,09,17,20,07,1.60
2021,09,17,20,08,1.60
2021,09,17,20,09,1.60
2021,09,17,20,10,1.60
2021,09,17,20,11,3.20
2021,09,17,20,13,4.80
2021,09,17,20,14,3.20
2021,09,17,20,15,3.20
2021,09,17,20,16,3.20
2021,09,17,20,17,3.20
2021,09,17,20,20,3.20
2021,09,17,20,21,6.40
2021,09,17,20,22,1.60
2021,09,17,20,23,1.60
2021,09,17,20,28,3.20
2021,09,17,20,29,1.60
2021,09,17,20,30,1.60
2021,09,17,21,04,3.20
2021,09,17,21,25,3.20
2021,09,17,21,26,1.60
2021,09,17,21,27,1.60
2021,09,17,21,31,1.60
2021,09,17,21,32,3.20
2021,09,17,21,34,1.60
2021,09,17,21,35,1.60
2021,09,17,21,36,1.60
2021,09,17,21,37,1.60
2021,09,17,21,40,1.60
2021,09,17,22,04,1.60
2021,09,17,22,12,1.60
2021,09,17,22,18,3.20
2021,09,17,22,32,1.60
2021,09,17,22,57,3.20
2021,09,17,23,42,1.60
